Wind_Speed
18 18 17 17 16 16 16 16 15 15 16 16 16 16 14 13 12 14 6 3 5 7 26 26 13 14 15 7 2 14 6 12 7 5 3 3 2 4 3 4 4 5 5 4 3 4 2 4 6 5 6 14 20 20
17 18 18 17 17 17 17 16 15 14 14 15 16 15 13 12 12 13 10 5 10 15 20 29 33 26 24 23 19 7 1 2 2 3 3 3 2 3 2 3 6 3 5 5 2 5 5 16 19 24 24 20 18 19
18 18 18 17 17 17 18 16 14 13 13 14 16 14 12 12 12 12 12 9 10 11 25 17 15 10 14 17 16 8 8 3 5 9 2 3 2 3 3 4 2 3 3 5 3 3 3 13 21 20 18 17 17 17
19 18 18 18 17 17 16 16 14 13 14 12 13 13 12 12 11 12 11 8 10 6 5 8 9 12 14 18 19 20 22 7 9 11 3 1 2 3 2 2 2 4 4 5 3 4 4 10 16 15 16 18 20 18
18 18 19 19 17 16 17 16 16 15 14 14 12 12 12 11 10 10 10 9 11 8 4 15 24 9 8 13 12 12 11 7 2 2 3 2 3 4 4 3 4 3 5 4 4 9 6 7 19 17 17 15 15 17
18 19 19 18 17 17 18 17 16 16 15 15 13 11 11 10 7 5 3 2 11 6 5 4 10 7 6 18 14 6 6 6 5 3 3 3 4 2 3 0 4 10 15 9 7 11 11 8 9 15 17 16 15 11
19 19 19 18 16 17 18 18 17 17 16 15 13 10 9 8 7 5 2 5 4 5 4 7 8 5 6 10 13 13 10 11 9 4 7 6 5 1 3 3 5 8 7 10 8 5 10 16 14 16 15 10 9 7
19 20 18 16 16 17 18 17 18 17 16 14 12 9 6 6 7 5 4 8 6 6 5 3 4 7 1 5 3 7 12 9 6 7 2 4 2 2 0 3 19 14 12 6 4 9 8 8 14 11 10 15 15 13
20 20 19 17 18 17 18 17 18 17 15 11 7 5 3 2 1 1 2 3 6 6 3 3 2 3 10 4 3 5 6 1 3 2 4 3 1 2 6 12 14 19 17 21 16 10 10 17 13 14 13 13 12 13
20 22 23 19 19 18 17 16 16 13 8 5 2 2 2 2 3 4 3 3 5 6 6 5 5 3 10 11 4 3 2 2 1 3 5 3 4 3 14 10 12 14 20 20 21 13 11 12 13 16 15 13 14 14
19 21 22 20 19 17 16 15 15 10 7 4 4 2 4 5 3 3 3 5 5 4 7 8 15 7 9 2 3 2 1 0 2 4 2 2 1 3 17 16 4 15 17 17 15 15 13 16 21 22 18 15 11 8
18 20 22 20 14 13 15 14 15 10 6 6 9 9 2 4 3 2 3 3 4 4 5 7 10 12 5 6 1 4 2 3 2 3 2 2 3 7 13 14 13 9 13 19 19 21 21 19 16 13 10 6 3 0
19 19 21 16 8 11 14 15 12 11 6 2 2 3 1 2 3 3 4 3 2 12 12 17 2 8 7 5 1 3 3 2 2 3 2 4 5 2 9 9 6 4 13 22 21 17 14 12 7 4 5 3 3 3
18 18 18 12 8 14 15 14 10 6 3 1 3 3 3 3 4 1 2 2 7 18 26 23 7 4 3 3 3 3 2 3 1 2 5 3 6 4 6 9 8 8 11 7 14 6 6 8 8 7 3 2 3 5
18 17 15 10 16 18 15 12 6 4 3 3 4 2 3 6 11 9 11 10 14 18 17 12 4 2 1 1 2 4 2 3 5 4 3 4 3 6 10 13 14 15 16 16 7 10 12 10 7 5 1 3 7 10
17 17 10 16 22 18 10 4 3 3 3 4 5 2 8 7 6 8 10 10 10 12 11 4 3 3 2 2 3 4 3 4 2 2 4 5 5 1 6 8 11 6 12 12 11 8 3 2 3 5 8 8 9 8
16 11 17 21 19 9 5 1 1 4 4 4 6 14 14 9 14 17 6 9 6 3 3 5 4 5 3 1 1 3 2 3 1 2 4 2 3 7 7 2 10 9 8 4 2 1 1 2 7 7 7 12 9 7
16 15 18 14 12 4 1 2 3 4 6 8 6 12 11 12 15 8 5 6 6 5 3 1 4 1 1 0 1 3 4 4 8 8 12 12 16 5 5 8 7 6 3 2 2 4 5 6 11 7 5 5 5 7
16 18 9 4 7 3 2 3 4 4 7 10 13 16 17 17 13 8 4 3 1 5 2 5 2 2 2 3 6 8 9 5 2 4 4 4 9 10 9 4 5 1 2 4 7 10 11 3 2 3 5 8 10 12
13 5 5 4 4 1 3 4 5 5 5 5 13 10 11 11 13 12 10 10 8 4 4 2 4 3 4 4 7 9 4 4 3 6 6 5 4 3 1 2 2 2 4 3 4 3 4 1 6 10 13 12 11 11
3 3 3 3 4 5 4 4 5 6 8 6 12 12 9 10 9 11 13 10 11 7 6 9 11 10 7 5 6 6 4 5 2 1 3 1 1 2 2 4 3 2 4 4 7 7 11 11 10 12 14 14 13 14
2 3 4 4 4 3 5 6 7 12 6 9 10 4 5 4 9 12 10 11 13 15 12 14 14 10 11 10 9 7 4 6 5 4 1 2 4 5 6 2 1 6 2 4 8 10 11 11 12 13 15 17 17 17
1 1 3 3 3 4 6 5 5 4 2 5 9 3 4 4 3 2 3 4 5 11 16 17 16 15 11 11 11 11 9 7 3 2 3 5 2 7 4 3 3 7 2 3 4 6 10 9 13 16 15 11 10 7
2 3 4 4 6 4 5 4 5 3 4 3 2 3 4 3 3 1 2 5 7 6 4 10 16 17 15 14 14 13 14 10 12 8 4 7 7 5 6 5 9 4 1 1 4 9 7 11 14 12 9 7 5 7
2 4 4 5 4 4 3 3 4 2 3 3 2 3 3 2 1 2 2 1 7 7 4 5 10 12 16 15 13 13 12 11 11 8 8 9 12 8 1 8 7 3 2 3 6 6 7 12 11 10 11 11 16 24
5 5 7 6 5 4 4 2 1 2 2 3 3 4 2 2 1 3 1 3 5 4 3 3 3 6 7 9 12 11 13 12 14 16 11 9 8 8 12 11 7 4 1 4 3 5 7 10 12 17 22 22 21 23
4 6 10 9 6 4 3 5 7 2 2 2 2 3 1 2 0 2 3 7 7 3 3 4 5 5 7 7 6 14 14 17 13 12 8 8 5 5 10 6 4 8 6 3 5 8 11 12 16 20 23 21 18 17
8 6 6 10 9 7 3 3 3 3 3 1 5 2 3 2 1 2 1 5 11 9 8 3 6 6 5 8 8 7 7 8 10 12 11 7 11 11 8 9 8 6 5 6 11 10 12 14 14 12 13 14 15 14
7 10 7 9 7 6 7 5 4 4 1 5 0 2 2 3 2 3 6 10 13 8 7 10 10 11 11 9 11 10 13 14 15 13 14 19 18 14 10 10 11 8 6 10 12 11 13 14 13 13 13 13 13 11
8 11 8 6 6 5 7 11 12 12 14 11 12 12 13 15 7 6 8 12 13 9 8 7 8 7 9 13 12 10 16 16 16 15 15 17 18 16 12 8 7 8 10 10 11 13 11 10 10 10 11 12 12 11
5 3 5 6 6 14 16 10 13 16 15 15 14 16 13 6 7 8 8 9 12 6 8 10 9 6 8 13 7 10 8 16 16 12 10 10 17 15 10 8 6 11 15 15 15 12 10 8 8 7 10 12 13 12
4 4 1 2 3 9 15 12 8 7 10 12 16 12 5 2 3 4 7 10 6 1 2 5 1 9 6 9 8 5 10 12 16 14 14 16 15 12 13 11 10 14 14 15 13 11 8 5 4 5 8 11 9 7
2 3 3 2 2 4 6 6 5 5 12 9 2 0 2 3 4 3 4 2 4 5 6 7 14 19 5 6 10 16 17 13 12 15 14 10 9 13 13 10 10 12 13 13 12 11 10 8 6 5 5 7 9 7
Wind_Direction
340 339 337 335 333 329 326 320 310 302 303 306 311 313 306 302 298 298 301 182 336 272 285 286 302 276 288 314 332 312 359 5 20 34 111 242 157 254 8 278 173 160 133 177 100 101 212 343 360 115 170 119 133 123
338 339 338 337 334 330 328 324 319 308 300 301 308 311 303 300 298 293 285 267 281 268 269 287 291 273 265 281 265 299 11 315 359 44 11 329 338 9 71 311 355 63 167 154 140 181 274 72 103 109 108 104 104 124
341 340 340 337 335 333 330 331 330 319 309 309 310 308 303 298 292 285 282 308 304 302 299 281 269 256 246 262 274 245 300 341 22 21 236 240 279 123 181 242 191 294 163 104 77 315 38 97 106 110 114 110 124 122
340 340 339 337 335 334 337 336 334 327 315 309 304 303 301 296 285 274 276 286 305 305 276 285 283 289 218 244 254 270 248 273 298 324 8 301 243 57 242 236 168 230 88 139 82 298 352 112 129 127 123 131 134 141
339 339 339 338 338 337 335 334 331 328 319 314 312 307 304 297 283 275 276 278 258 234 286 291 307 233 220 230 207 222 253 267 301 52 64 291 295 13 356 52 359 301 163 128 202 239 182 181 158 153 152 160 162 152
340 341 338 338 336 335 334 333 333 329 321 314 309 303 300 295 280 287 217 331 172 211 289 302 311 298 11 194 203 229 243 237 249 189 171 261 302 28 76 38 266 108 104 107 134 110 172 165 204 183 172 170 166 177
337 336 338 339 336 331 331 330 330 326 321 313 305 298 293 287 270 243 212 159 189 237 263 301 293 276 314 190 195 211 227 247 245 227 185 200 250 188 119 178 195 109 107 87 71 117 146 167 137 148 150 159 176 164
336 335 339 338 333 330 329 327 328 326 321 315 304 293 278 284 289 257 243 229 237 239 250 270 273 313 291 196 241 247 241 248 225 217 198 170 189 143 94 180 168 171 171 196 287 252 234 198 171 176 183 164 152 146
337 335 335 334 332 329 329 327 330 329 325 319 305 295 299 254 196 54 290 210 217 232 271 272 258 274 359 15 279 250 204 120 242 165 222 141 300 203 212 164 191 202 192 205 194 174 201 203 204 187 178 159 163 153
337 337 336 334 334 332 331 331 333 339 349 349 345 330 176 172 278 291 234 223 219 216 227 243 281 281 342 357 347 343 47 149 75 285 317 116 234 279 12 338 303 245 197 168 165 162 160 160 188 186 187 182 184 179
336 337 337 336 336 336 334 332 337 338 341 3 343 311 324 353 254 234 239 202 194 241 219 232 224 237 274 98 255 266 172 46 95 280 100 310 297 326 27 31 332 198 201 198 192 190 195 180 163 146 138 142 150 162
328 330 334 335 338 349 345 337 332 340 335 307 305 310 16 328 265 225 230 249 189 226 217 197 218 209 204 223 168 358 87 32 235 339 76 338 254 347 4 23 49 69 134 147 154 148 148 148 147 143 134 134 136 220
325 325 329 330 330 345 346 341 325 320 327 301 294 290 173 207 343 220 205 249 280 355 357 328 247 192 203 191 95 70 73 210 29 41 237 227 229 23 43 5 292 355 56 145 138 143 140 130 123 135 133 100 357 346
319 323 326 321 303 323 332 330 315 307 302 268 248 286 178 229 249 69 17 309 323 337 338 331 278 167 148 93 161 110 243 82 70 234 235 251 278 20 18 15 358 343 5 99 127 116 134 135 141 147 167 220 274 292
315 320 317 305 310 318 318 314 293 267 203 254 256 220 245 341 317 335 344 334 338 340 339 335 317 152 19 138 168 111 154 235 199 227 238 311 273 13 15 352 326 290 284 278 189 179 155 154 166 168 179 296 304 312
313 318 311 307 307 320 312 304 267 209 254 239 240 200 315 306 291 336 314 320 331 343 357 337 332 10 255 185 164 184 190 202 255 232 253 268 254 99 358 1 78 170 76 125 185 197 198 246 283 306 315 314 315 301
309 318 314 313 320 337 307 218 178 239 243 243 235 224 229 255 264 276 274 316 297 64 106 282 89 276 310 109 358 38 93 250 271 295 289 90 18 337 302 207 150 129 122 154 179 313 292 323 329 322 316 317 310 295
306 317 321 313 326 341 8 229 240 253 254 251 263 259 265 279 291 280 210 212 213 162 180 245 264 317 273 211 320 195 158 183 314 294 281 289 259 238 165 94 123 159 183 240 17 16 339 333 313 294 299 308 291 282
316 320 316 289 327 344 246 232 233 263 258 268 269 278 281 279 291 296 297 155 54 92 359 256 252 228 232 167 140 182 201 218 310 309 265 153 180 204 239 248 171 221 323 326 317 314 317 322 227 306 313 306 297 295
317 325 325 288 290 220 280 265 229 260 271 275 301 292 311 281 272 277 284 245 239 261 223 230 223 256 218 197 184 178 202 144 154 162 155 189 200 196 176 55 61 9 350 89 88 91 131 259 314 319 326 324 311 299
279 324 342 337 269 231 258 274 251 248 284 270 293 315 303 291 286 272 266 261 207 208 226 231 254 281 203 200 182 172 195 196 157 114 87 168 177 287 20 199 299 323 127 32 356 345 342 338 326 316 308 301 289 279
246 254 294 274 261 246 257 240 258 302 280 271 294 267 247 252 268 282 280 264 258 249 247 256 260 258 203 174 170 180 162 151 136 133 238 289 287 262 216 321 296 182 273 328 327 333 338 327 310 308 301 294 287 287
58 3 267 255 269 251 266 252 248 255 262 288 312 251 246 234 232 263 228 242 234 260 249 252 255 216 216 201 208 207 193 204 215 223 248 270 317 207 176 79 208 217 221 304 312 326 332 330 322 320 314 310 321 327
231 240 244 239 220 255 274 240 225 266 275 251 263 278 291 278 334 330 238 233 231 204 225 236 224 201 196 203 212 230 226 263 234 216 223 245 298 259 283 322 165 195 258 254 317 331 334 340 341 344 359 36 56 91
258 235 228 255 247 241 242 237 210 233 259 255 272 274 264 302 29 252 235 263 170 168 184 155 171 194 205 217 240 247 243 244 216 223 234 262 298 275 155 164 147 137 203 296 346 355 9 355 12 40 64 91 114 117
234 227 208 219 221 207 223 248 211 226 257 251 256 258 202 136 249 245 256 80 113 137 175 196 196 208 214 230 222 233 234 222 232 235 239 280 282 231 195 183 168 146 119 347 356 62 37 40 70 92 107 110 111 114
239 255 227 238 264 290 304 295 276 211 256 263 276 318 309 240 336 12 77 44 36 355 292 271 261 274 280 273 223 213 224 234 238 223 207 244 240 189 173 170 123 141 141 93 97 94 76 81 109 108 116 117 108 103
243 259 211 236 227 242 193 268 258 243 241 301 350 339 18 5 279 310 255 310 324 314 302 271 231 265 268 259 258 220 203 179 181 184 193 190 177 159 114 71 75 112 128 115 119 107 102 94 108 119 113 116 121 110
242 232 237 262 209 208 211 212 245 262 170 344 61 286 268 209 228 269 286 325 337 332 319 312 295 276 253 243 192 175 174 173 172 169 167 162 158 150 130 101 83 142 152 135 131 117 96 92 93 99 104 110 117 119
240 229 232 235 184 208 225 224 255 263 280 292 310 288 280 289 277 281 283 300 317 314 301 326 332 307 229 209 189 180 175 182 174 175 185 196 192 180 160 127 108 126 147 151 147 143 126 114 102 95 99 95 98 107
261 220 234 242 220 239 240 280 288 274 268 277 290 286 286 260 300 283 272 301 323 310 300 312 319 303 198 187 202 177 167 198 195 196 186 182 176 171 152 134 126 143 140 140 144 135 123 117 109 100 99 115 113 108
222 212 228 231 253 272 281 292 287 275 273 277 296 286 253 257 273 250 270 294 324 331 324 307 281 154 162 218 181 189 190 177 163 171 181 172 176 164 140 128 108 146 141 138 139 137 138 145 154 140 115 134 120 108
223 224 212 264 282 271 253 207 218 232 230 242 227 297 221 221 243 259 289 309 133 85 96 121 143 162 220 206 178 159 172 161 146 163 163 172 175 155 156 148 136 137 141 150 156 151 150 155 147 145 125 135 140 141
Height
1550 1546 1543 1540 1537 1534 1532 1529 1527 1526 1524 1522 1521 1519 1516 1515 1513 1512 1512 1511 1511 1506 1495 1493 1495 1494 1491 1492 1493 1480 1475 1473 1475 1484 1487 1487 1488 1482 1481 1475 1471 1482 1495 1499 1502 1509 1508 1474 1473 1483 1488 1487 1488 1489
1548 1544 1541 1538 1535 1532 1529 1527 1524 1522 1520 1518 1517 1516 1513 1511 1510 1508 1508 1509 1507 1504 1494 1489 1487 1487 1487 1487 1491 1486 1484 1482 1483 1488 1488 1485 1484 1483 1485 1492 1473 1488 1479 1489 1490 1499 1485 1479 1480 1482 1484 1486 1490 1490
1546 1543 1539 1536 1533 1530 1527 1524 1522 1519 1517 1515 1513 1512 1509 1509 1507 1506 1504 1504 1503 1499 1490 1483 1478 1482 1483 1483 1486 1488 1483 1483 1483 1484 1482 1483 1485 1481 1491 1486 1477 1479 1472 1485 1491 1485 1481 1484 1486 1487 1487 1490 1492 1495
1545 1541 1537 1534 1530 1527 1524 1522 1520 1517 1514 1513 1511 1509 1507 1505 1503 1502 1501 1502 1502 1501 1496 1479 1475 1475 1477 1477 1479 1480 1481 1482 1481 1481 1482 1484 1484 1475 1479 1476 1478 1476 1474 1480 1488 1485 1484 1483 1488 1489 1490 1490 1492 1495
1543 1539 1535 1532 1528 1526 1523 1520 1516 1514 1511 1508 1507 1504 1503 1501 1500 1499 1499 1499 1499 1503 1497 1481 1471 1468 1470 1471 1474 1477 1479 1479 1479 1479 1482 1486 1479 1478 1477 1477 1483 1475 1476 1483 1489 1479 1480 1483 1486 1487 1490 1492 1493 1492
1541 1537 1534 1530 1527 1524 1520 1517 1514 1511 1508 1505 1504 1501 1500 1499 1498 1497 1496 1496 1495 1498 1498 1488 1472 1465 1465 1467 1471 1473 1474 1476 1477 1477 1480 1480 1479 1479 1490 1493 1481 1477 1474 1475 1477 1478 1480 1483 1486 1485 1487 1493 1494 1493
1539 1535 1531 1528 1525 1521 1518 1515 1511 1508 1505 1502 1500 1498 1496 1496 1495 1497 1497 1497 1497 1498 1497 1488 1475 1465 1465 1467 1469 1470 1472 1474 1476 1476 1476 1477 1477 1477 1485 1490 1481 1478 1477 1476 1478 1479 1481 1484 1484 1486 1487 1490 1492 1490
1537 1533 1529 1526 1522 1519 1516 1512 1508 1505 1501 1499 1497 1495 1493 1493 1494 1494 1495 1496 1496 1497 1496 1491 1478 1468 1464 1464 1466 1467 1469 1471 1472 1472 1472 1473 1475 1475 1484 1478 1476 1476 1477 1479 1481 1481 1483 1486 1485 1485 1487 1487 1487 1489
1535 1531 1527 1524 1520 1516 1513 1509 1506 1502 1498 1496 1494 1493 1492 1492 1492 1493 1494 1494 1495 1498 1492 1487 1483 1478 1466 1465 1465 1465 1466 1471 1470 1469 1470 1472 1477 1481 1475 1478 1477 1477 1476 1475 1478 1479 1483 1484 1484 1485 1485 1486 1486 1490
1533 1529 1525 1521 1518 1514 1510 1507 1503 1499 1496 1495 1494 1493 1492 1492 1492 1493 1493 1493 1492 1490 1489 1485 1479 1477 1472 1468 1465 1467 1464 1469 1476 1471 1468 1471 1475 1471 1471 1471 1472 1473 1473 1473 1474 1477 1479 1480 1482 1482 1483 1484 1485 1487
1530 1527 1523 1519 1516 1512 1508 1505 1501 1499 1498 1495 1495 1493 1492 1490 1491 1491 1490 1490 1487 1486 1480 1475 1474 1473 1473 1475 1472 1466 1468 1469 1478 1477 1473 1476 1477 1472 1471 1469 1468 1470 1469 1469 1470 1473 1475 1477 1478 1479 1481 1483 1485 1486
1527 1524 1520 1516 1513 1511 1508 1504 1501 1499 1497 1497 1495 1493 1491 1492 1491 1490 1487 1483 1481 1478 1469 1468 1466 1468 1468 1469 1469 1467 1471 1472 1477 1473 1476 1478 1475 1472 1471 1469 1470 1470 1470 1471 1470 1471 1474 1476 1478 1481 1483 1485 1487 1487
1524 1521 1517 1513 1511 1509 1506 1503 1501 1498 1496 1496 1496 1494 1492 1495 1495 1487 1483 1479 1477 1472 1471 1470 1464 1464 1466 1466 1467 1469 1474 1477 1475 1481 1480 1475 1469 1471 1471 1472 1471 1472 1473 1474 1472 1477 1476 1478 1478 1479 1480 1482 1483 1484
1520 1518 1514 1511 1509 1507 1504 1501 1499 1498 1496 1496 1495 1494 1492 1491 1486 1482 1483 1482 1479 1476 1470 1467 1463 1462 1462 1465 1466 1471 1476 1476 1484 1483 1477 1467 1467 1473 1475 1474 1472 1473 1475 1477 1477 1480 1479 1478 1479 1479 1479 1480 1480 1481
1517 1514 1511 1509 1507 1503 1501 1498 1497 1497 1496 1495 1493 1493 1488 1485 1483 1481 1480 1479 1477 1474 1471 1466 1464 1461 1462 1464 1464 1472 1476 1477 1476 1475 1471 1467 1468 1470 1469 1469 1469 1471 1470 1478 1478 1480 1478 1478 1478 1478 1478 1478 1478 1478
1512 1510 1508 1505 1501 1499 1496 1495 1495 1496 1495 1493 1489 1486 1485 1484 1480 1478 1478 1478 1475 1472 1470 1470 1469 1467 1464 1464 1465 1466 1469 1472 1472 1470 1467 1467 1467 1468 1468 1470 1468 1470 1467 1472 1477 1479 1476 1476 1477 1476 1475 1474 1473 1473
1509 1508 1505 1501 1498 1495 1494 1494 1495 1494 1491 1487 1482 1481 1480 1481 1479 1476 1476 1472 1475 1474 1476 1479 1478 1478 1467 1468 1467 1469 1474 1473 1469 1469 1468 1469 1469 1468 1466 1464 1465 1470 1471 1473 1476 1474 1474 1474 1473 1473 1472 1471 1469 1470
1505 1504 1502 1499 1496 1495 1494 1494 1494 1491 1486 1481 1480 1477 1478 1477 1475 1474 1475 1475 1475 1475 1475 1474 1474 1471 1471 1470 1471 1468 1467 1466 1466 1465 1466 1469 1468 1471 1468 1467 1468 1468 1470 1472 1471 1471 1471 1470 1470 1470 1469 1468 1468 1468
1502 1500 1498 1497 1495 1495 1494 1493 1492 1487 1481 1477 1476 1475 1475 1473 1473 1473 1472 1472 1472 1472 1473 1474 1471 1471 1469 1466 1467 1466 1466 1465 1465 1466 1465 1466 1468 1469 1470 1469 1469 1470 1471 1471 1471 1471 1469 1469 1470 1469 1467 1466 1466 1465
1500 1498 1497 1496 1496 1495 1493 1490 1489 1485 1479 1473 1472 1471 1471 1469 1468 1469 1470 1471 1471 1471 1471 1470 1467 1464 1464 1464 1464 1465 1464 1464 1465 1468 1468 1468 1469 1469 1469 1470 1471 1472 1472 1472 1472 1472 1471 1470 1468 1466 1464 1463 1462 1461
1498 1497 1496 1496 1495 1493 1492 1487 1484 1481 1476 1473 1470 1469 1467 1466 1465 1464 1464 1466 1467 1467 1465 1463 1464 1464 1464 1464 1464 1463 1464 1465 1466 1467 1468 1470 1470 1470 1469 1471 1472 1472 1472 1472 1471 1469 1467 1465 1464 1462 1461 1460 1459 1458
1496 1496 1496 1495 1493 1491 1488 1485 1482 1479 1477 1471 1467 1465 1464 1462 1461 1460 1460 1460 1459 1460 1460 1460 1461 1462 1462 1463 1464 1465 1466 1466 1466 1467 1467 1468 1468 1469 1469 1469 1470 1470 1470 1469 1467 1466 1465 1464 1462 1460 1458 1456 1453 1450
1495 1496 1495 1494 1492 1488 1484 1481 1481 1476 1473 1469 1466 1463 1460 1458 1456 1457 1457 1455 1453 1455 1455 1456 1457 1459 1460 1461 1462 1464 1465 1466 1467 1468 1468 1468 1467 1465 1467 1469 1469 1468 1467 1467 1466 1466 1464 1462 1460 1457 1453 1449 1447 1445
1495 1495 1493 1490 1489 1485 1482 1478 1476 1474 1471 1469 1465 1462 1459 1456 1455 1454 1454 1451 1452 1453 1453 1451 1452 1455 1458 1459 1460 1461 1462 1463 1465 1466 1466 1467 1467 1468 1469 1469 1468 1467 1467 1467 1467 1465 1462 1459 1456 1452 1449 1447 1446 1445
1496 1493 1491 1486 1484 1482 1478 1473 1472 1471 1469 1464 1462 1460 1457 1455 1456 1455 1453 1450 1450 1451 1452 1453 1453 1454 1455 1456 1457 1458 1459 1460 1461 1463 1465 1466 1466 1467 1468 1467 1467 1467 1467 1467 1465 1463 1460 1458 1455 1453 1451 1450 1449 1449
1491 1485 1484 1479 1476 1476 1472 1469 1467 1466 1466 1463 1458 1455 1454 1454 1455 1454 1452 1451 1451 1451 1451 1452 1453 1454 1455 1455 1456 1456 1457 1459 1461 1462 1463 1465 1466 1466 1466 1466 1466 1467 1467 1466 1464 1463 1462 1460 1458 1456 1455 1455 1457 1457
1486 1480 1475 1473 1471 1470 1469 1467 1465 1465 1464 1460 1456 1455 1454 1454 1452 1454 1453 1453 1453 1452 1452 1452 1451 1451 1452 1452 1451 1453 1455 1456 1457 1458 1462 1465 1465 1465 1466 1466 1465 1466 1466 1466 1466 1465 1464 1463 1462 1461 1461 1463 1464 1465
1477 1472 1470 1468 1469 1468 1469 1468 1465 1463 1460 1458 1457 1456 1456 1456 1456 1454 1453 1453 1452 1450 1449 1449 1449 1449 1449 1450 1450 1451 1452 1453 1455 1458 1461 1464 1465 1466 1466 1465 1465 1466 1466 1467 1468 1468 1468 1467 1467 1466 1466 1466 1467 1469
1469 1465 1466 1464 1464 1465 1464 1464 1462 1459 1457 1458 1458 1457 1456 1454 1453 1453 1453 1452 1451 1449 1448 1447 1447 1446 1446 1447 1448 1450 1452 1453 1455 1458 1460 1462 1465 1467 1467 1467 1467 1467 1468 1469 1471 1472 1472 1471 1471 1470 1470 1470 1470 1471
1462 1460 1460 1459 1459 1459 1458 1458 1457 1456 1457 1457 1456 1455 1454 1453 1452 1451 1450 1450 1448 1446 1445 1444 1445 1443 1444 1445 1447 1450 1451 1453 1456 1458 1460 1461 1463 1466 1467 1468 1468 1468 1469 1470 1472 1474 1475 1475 1475 1474 1474 1474 1473 1473
1457 1456 1456 1455 1454 1454 1454 1454 1454 1453 1453 1453 1453 1453 1450 1450 1449 1449 1448 1447 1446 1444 1443 1442 1443 1442 1442 1445 1447 1449 1451 1453 1455 1457 1459 1460 1462 1464 1467 1468 1469 1469 1470 1471 1473 1474 1475 1475 1476 1477 1477 1477 1477 1477
1453 1453 1453 1453 1452 1451 1451 1451 1451 1451 1450 1450 1449 1449 1448 1448 1447 1447 1446 1445 1444 1443 1442 1441 1441 1443 1445 1446 1448 1449 1450 1452 1455 1457 1458 1461 1463 1465 1467 1469 1470 1471 1472 1473 1474 1475 1476 1477 1478 1478 1478 1479 1479 1479
1450 1451 1451 1452 1451 1450 1447 1448 1447 1447 1446 1447 1447 1447 1446 1446 1446 1445 1444 1444 1444 1444 1442 1440 1439 1446 1446 1446 1446 1448 1451 1453 1455 1458 1459 1461 1463 1464 1467 1469 1471 1472 1473 1474 1474 1475 1476 1477 1478 1479 1479 1479 1480 1480